Weather reports worldwide

Advertisment
Wattisham, United Kingdom (3590): temperature & dewpoint: 31.05.2020 11:00:00 - 06.06.2020 11:00:00 (BST)Wattisham, United Kingdom (3590): temperature -20cm & temperature -100cm: 31.05.2020 11:00:00 - 06.06.2020 11:00:00 (BST)Wattisham, United Kingdom (3590): wind speed & gusts: 31.05.2020 11:00:00 - 06.06.2020 11:00:00 (BST)Wattisham, United Kingdom (3590): wind direction: 31.05.2020 11:00:00 - 06.06.2020 11:00:00 (BST)Wattisham, United Kingdom (3590): reduced air pressure: 31.05.2020 11:00:00 - 06.06.2020 11:00:00 (BST)Wattisham, United Kingdom (3590): visibility: 31.05.2020 11:00:00 - 06.06.2020 11:00:00 (BST)Wattisham, United Kingdom (3590): sunshine duration: 31.05.2020 11:00:00 - 06.06.2020 11:00:00 (BST)Wattisham, United Kingdom (3590): precipitation: 31.05.2020 11:00:00 - 06.06.2020 11:00:00 (BST)
Date & Time tt [°C] td [°C] tt -20cm [°C] tt -100cm [°C] ff [km/h] ff [kn] fx [km/h] fx [kn] dd ppp [hPa] vv [km] sd [min] rr [mm]
06.06.2020 11:00:00 9,2 6,5 - - 31 17 50 27 WSW 996,0 10 0 0,0
06.06.2020 10:00:00 9,0 6,1 15,0 14,2 31 17 54 29 W 995,9 14 0 0,0
06.06.2020 09:00:00 10,2 3,9 - - 34 18 54 29 W 995,5 40 30 0,0
06.06.2020 08:00:00 9,0 3,7 - - 31 17 48 26 WSW 995,7 40 48 0,0
06.06.2020 07:00:00 7,6 3,4 - - 29 16 - - WSW 995,8 30 60 0,0
06.06.2020 06:00:00 6,1 3,2 - - 22 12 - - WSW 996,4 10 18 0,0
06.06.2020 05:00:00 4,9 3,0 - - 21 11 - - WSW 996,4 45 0 0,0
06.06.2020 04:00:00 4,5 2,2 - - 15 8 - - WSW 996,7 45 0 0,0
06.06.2020 03:00:00 5,9 2,4 - - 18 10 - - W 996,9 50 0 0,0
06.06.2020 02:00:00 6,5 2,3 - - 21 11 - - W 996,9 50 0 0,0
06.06.2020 01:00:00 5,7 2,5 - - 15 8 - - W 996,9 45 - 0,0
06.06.2020 00:00:00 6,5 2,2 - - 16 9 - - W 997,0 50 0 0,0
05.06.2020 23:00:00 5,4 1,1 - - 11 6 - - W 997,0 10 0 0,0
05.06.2020 22:00:00 6,6 2,7 - - 11 6 - - W 996,7 45 0 0,0
05.06.2020 21:00:00 9,1 5,7 - - 5 3 - - SSW 996,1 10 30 0,0
05.06.2020 20:00:00 10,7 5,6 - - 8 4 - - WNW 996,2 35 54 0,0
05.06.2020 19:00:00 10,6 5,5 - - 16 9 - - NW 996,2 10 18 0,4
05.06.2020 18:00:00 12,0 5,8 - - 24 13 50 27 WNW 995,6 45 24 0,4
05.06.2020 17:00:00 8,1 3,9 - - 31 17 61 33 WNW 996,4 6 36 0,2
05.06.2020 16:00:00 11,2 7,9 - - 21 11 50 27 NW 995,5 10 18 0,6
05.06.2020 15:00:00 10,3 5,5 - - 24 13 - - N 995,0 25 18 0,0
05.06.2020 14:00:00 13,3 6,5 - - 21 11 - - WNW 994,7 40 54 0,0
05.06.2020 13:00:00 10,7 6,8 - - 28 15 - - NW 994,7 10 30 0,0
05.06.2020 12:00:00 8,3 7,1 - - 22 12 - - NW 995,0 10 0 0,2
05.06.2020 11:00:00 9,0 7,9 - - 22 12 - - NNW 994,4 10 0 0,6
05.06.2020 10:00:00 8,3 7,1 15,9 14,2 26 14 - - NNW 993,5 10 0 0,2
05.06.2020 09:00:00 9,7 7,3 - - 22 12 - - W 993,1 10 0 0,0
05.06.2020 08:00:00 10,0 7,2 - - 26 14 - - WNW 993,0 40 12 0,0
05.06.2020 07:00:00 9,8 7,6 - - 24 13 - - WNW 993,4 30 18 0,0
05.06.2020 06:00:00 9,6 8,1 - - 21 11 - - W 993,8 40 6 0,0
05.06.2020 05:00:00 9,7 9,4 - - 16 9 - - W 994,4 10 0 0,0
05.06.2020 04:00:00 9,6 9,3 - - 13 7 - - W 995,0 11 0 1,2
05.06.2020 03:00:00 9,8 9,0 - - 16 9 - - WSW 996,1 12 0 0,0
05.06.2020 02:00:00 9,9 8,3 - - 16 9 - - WSW 996,9 22 0 0,0
05.06.2020 01:00:00 9,6 7,5 - - 11 6 - - WSW 997,8 10 - 0,0
05.06.2020 00:00:00 9,3 7,3 - - 13 7 - - SW 998,6 10 0 0,0
04.06.2020 23:00:00 8,7 7,0 - - 8 4 - - SW 999,4 10 0 0,0
04.06.2020 22:00:00 8,7 6,6 - - 9 5 - - WSW 1000,2 10 0 0,0
04.06.2020 21:00:00 10,3 6,6 - - 9 5 - - WSW 1000,3 10 6 0,0
04.06.2020 20:00:00 11,1 6,2 - - 15 8 - - W 1000,4 10 0 0,0
04.06.2020 19:00:00 11,7 5,7 - - 15 8 - - WNW 1000,6 10 0 0,0
04.06.2020 18:00:00 12,0 5,1 - - 16 9 - - WNW 1000,8 10 0 0,0
04.06.2020 17:00:00 12,6 4,8 - - 18 10 - - WNW 1000,9 10 0 0,0
04.06.2020 16:00:00 12,3 4,5 - - 24 13 - - NW 1001,5 10 0 0,0
04.06.2020 15:00:00 12,9 4,2 - - 21 11 - - NW 1001,4 50 6 0,0
04.06.2020 14:00:00 13,3 4,0 - - 22 12 - - NNW 1001,4 40 12 0,0
04.06.2020 13:00:00 13,3 5,2 - - 21 11 - - N 1001,8 10 18 0,0
04.06.2020 12:00:00 11,8 5,7 - - 22 12 - - NNW 1002,5 10 0 0,0
04.06.2020 11:00:00 11,4 6,4 - - 18 10 - - NNW 1002,6 30 0 0,0
04.06.2020 10:00:00 12,3 5,9 16,7 14,0 26 14 - - N 1002,7 10 6 0,0
04.06.2020 09:00:00 12,3 5,7 - - 28 15 - - N 1002,8 10 18 0,0
04.06.2020 08:00:00 11,4 7,8 - - 28 15 - - N 1003,2 10 0 0,0
04.06.2020 07:00:00 10,7 8,7 - - 22 12 - - N 1003,3 10 0 0,0
04.06.2020 06:00:00 10,6 8,9 - - 18 10 - - NNW 1003,4 23 0 0,0
04.06.2020 05:00:00 10,4 8,8 - - 16 9 - - NNW 1003,8 10 0 0,0
04.06.2020 04:00:00 10,5 9,1 - - 21 11 - - N 1004,1 23 0 0,0
04.06.2020 03:00:00 10,4 9,8 - - 21 11 - - N 1004,7 11 0 0,0
04.06.2020 02:00:00 10,7 10,0 - - 22 12 - - N 1005,4 10 0 0,0
04.06.2020 01:00:00 11,4 9,8 - - 21 11 - - N 1005,9 10 - 0,0
04.06.2020 00:00:00 11,5 9,9 - - 21 11 - - N 1006,3 10 0 0,0
03.06.2020 23:00:00 12,1 9,5 - - 24 13 - - N 1006,6 10 0 0,0
03.06.2020 22:00:00 12,4 9,4 - - 24 13 - - N 1007,1 10 0 0,0
03.06.2020 21:00:00 13,1 9,0 - - 21 11 - - N 1007,1 10 0 0,0
03.06.2020 20:00:00 13,8 8,5 - - 28 15 - - N 1007,3 35 0 0,0
03.06.2020 19:00:00 15,3 8,4 - - 22 12 - - N 1006,9 10 0 0,0
03.06.2020 18:00:00 15,8 8,3 - - 26 14 - - N 1006,9 10 12 0,0
03.06.2020 17:00:00 16,8 8,7 - - 22 12 - - NNE 1007,1 10 12 0,0
03.06.2020 16:00:00 18,7 7,5 - - 24 13 - - NE 1007,2 10 48 0,0
03.06.2020 15:00:00 19,4 9,2 - - 26 14 - - N 1007,4 40 24 0,0
03.06.2020 14:00:00 17,9 9,0 - - 21 11 - - NNE 1007,7 40 6 0,0
03.06.2020 13:00:00 17,9 9,3 - - 21 11 - - N 1007,8 40 24 0,0
03.06.2020 12:00:00 17,9 8,7 - - 22 12 - - N 1008,1 10 0 0,0
03.06.2020 11:00:00 17,0 8,7 - - 21 11 - - N 1008,3 10 0 0,0
03.06.2020 10:00:00 16,6 9,3 16,9 14,0 15 8 - - NNE 1008,7 30 0 0,0
03.06.2020 09:00:00 15,5 8,7 - - 11 6 - - N 1009,0 10 0 0,0
03.06.2020 08:00:00 13,5 8,5 - - 8 4 - - N 1009,4 35 0 0,0
03.06.2020 07:00:00 12,1 8,8 - - 8 4 - - N 1009,7 10 0 0,0
03.06.2020 06:00:00 11,4 8,2 - - 8 4 - - N 1010,1 10 0 0,0
03.06.2020 05:00:00 11,2 7,5 - - 5 3 - - N 1010,3 45 0 0,0
03.06.2020 04:00:00 11,8 7,8 - - 5 3 - - NNE 1010,8 50 0 0,0
03.06.2020 03:00:00 10,9 7,5 - - 4 2 - - WNW 1011,6 10 0 0,0
03.06.2020 02:00:00 12,3 7,7 - - 4 2 - - NNE 1012,1 50 0 0,0
03.06.2020 01:00:00 12,6 8,5 - - 2 1 - - N 1012,7 10 - 0,0
03.06.2020 00:00:00 13,1 10,7 - - 5 3 - - NNW 1013,2 10 0 0,0
02.06.2020 23:00:00 13,2 10,0 - - 4 2 - - WSW 1013,9 10 0 0,0
02.06.2020 22:00:00 15,0 8,9 - - 2 1 - - SE 1014,4 30 0 0,0
02.06.2020 21:00:00 17,8 8,5 - - 5 3 - - E 1014,6 35 6 0,0
02.06.2020 20:00:00 19,5 8,7 - - 9 5 - - NE 1014,8 10 54 0,0
02.06.2020 19:00:00 21,7 9,2 - - 15 8 - - N 1014,8 10 42 0,0
02.06.2020 18:00:00 22,6 9,6 - - 15 8 - - N 1015,0 10 42 0,0
02.06.2020 17:00:00 22,7 9,9 - - 11 6 - - N 1015,4 10 18 0,0
02.06.2020 16:00:00 23,1 9,8 - - 11 6 - - NW 1015,9 10 18 0,0
02.06.2020 15:00:00 22,6 8,7 - - 8 4 - - NW 1016,7 10 48 0,0
02.06.2020 14:00:00 21,8 7,7 - - 9 5 - - N 1017,7 40 60 0,0
02.06.2020 13:00:00 21,5 9,5 - - 13 7 - - NNW 1018,1 40 60 0,0
02.06.2020 12:00:00 20,4 10,9 - - 9 5 - - N 1018,8 10 60 0,0
02.06.2020 11:00:00 18,9 11,2 - - 13 7 - - N 1019,4 10 60 0,0
02.06.2020 10:00:00 17,3 10,6 - - 15 8 - - NNW 1020,0 10 60 -
02.06.2020 09:00:00 15,7 11,2 - - 15 8 - - NNW 1020,4 10 60 -
02.06.2020 08:00:00 13,0 11,0 - - 13 7 - - N 1020,7 25 60 0,0
02.06.2020 07:00:00 11,1 10,8 - - 13 7 - - N 1021,0 10 36 0,0
02.06.2020 06:00:00 9,4 9,3 - - 13 7 - - N 1021,1 9 0 0,0
02.06.2020 05:00:00 8,3 8,2 - - 13 7 - - N 1021,3 6 0 0,0
02.06.2020 04:00:00 8,6 8,4 - - 13 7 - - N 1021,5 6 0 0,0
02.06.2020 03:00:00 8,0 7,6 - - 9 5 - - N 1022,0 7 0 0,0
02.06.2020 02:00:00 9,4 9,1 - - 13 7 - - N 1022,6 12 0 0,0
02.06.2020 01:00:00 8,9 7,9 - - 8 4 - - N 1022,9 13 - 0,0
02.06.2020 00:00:00 11,7 9,6 - - 13 7 - - NE 1022,9 10 0 0,0
01.06.2020 23:00:00 12,7 9,6 - - 13 7 - - ENE 1022,9 10 0 0,0
01.06.2020 22:00:00 14,1 8,1 - - 13 7 - - ENE 1023,0 10 0 0,0
01.06.2020 21:00:00 16,0 7,7 - - 15 8 - - ENE 1022,6 30 36 0,0
01.06.2020 20:00:00 18,4 8,0 - - 21 11 - - NE 1022,2 10 60 0,0
01.06.2020 19:00:00 19,9 8,6 - - 18 10 - - ENE 1022,0 10 60 0,0
01.06.2020 18:00:00 21,3 8,9 - - 16 9 - - NE 1021,9 40 60 0,0
01.06.2020 17:00:00 21,6 8,4 - - 18 10 - - ENE 1022,1 10 60 0,0
01.06.2020 16:00:00 22,1 8,2 - - 16 9 - - E 1022,3 40 60 0,0
01.06.2020 15:00:00 22,3 7,4 - - 15 8 - - E 1022,5 10 60 0,0
01.06.2020 14:00:00 22,4 7,4 - - 15 8 - - E 1022,7 10 60 0,0
01.06.2020 13:00:00 22,4 7,3 - - 21 11 - - ENE 1022,8 10 60 0,0
01.06.2020 12:00:00 22,3 7,9 - - 18 10 - - ENE 1023,0 10 60 0,0
01.06.2020 11:00:00 21,0 9,9 - - 21 11 - - E 1023,2 10 60 0,0
01.06.2020 10:00:00 19,9 10,9 16,2 13,7 15 8 - - NE 1023,4 35 60 0,0
01.06.2020 09:00:00 17,2 11,7 - - 11 6 - - NNE 1023,6 10 60 0,0
01.06.2020 08:00:00 15,3 11,9 - - 13 7 - - NE 1023,7 10 60 0,0
01.06.2020 07:00:00 12,4 10,8 - - 15 8 - - NE 1023,8 20 60 0,0
01.06.2020 06:00:00 10,0 9,1 - - 13 7 - - NNE 1023,7 15 0 0,0
01.06.2020 05:00:00 9,7 8,7 - - 15 8 - - NE 1023,5 20 0 0,0
01.06.2020 04:00:00 8,8 7,8 - - 11 6 - - NNE 1023,8 10 0 0,0
01.06.2020 03:00:00 9,5 8,2 - - 15 8 - - NNE 1023,8 23 0 0,0
01.06.2020 02:00:00 9,7 8,0 - - 15 8 - - NNE 1024,1 10 0 0,0
01.06.2020 01:00:00 9,9 7,7 - - 13 7 - - NNE 1024,5 35 - 0,0
01.06.2020 00:00:00 11,3 8,0 - - 15 8 - - NE 1024,5 35 0 0,0
31.05.2020 23:00:00 12,1 7,6 - - 15 8 - - NE 1024,5 50 0 0,0
31.05.2020 22:00:00 13,2 6,2 - - 13 7 - - NE 1024,5 50 0 0,0
31.05.2020 21:00:00 14,9 5,8 - - 16 9 - - ENE 1024,1 45 36 0,0
31.05.2020 20:00:00 16,6 5,6 - - 24 13 - - ENE 1023,9 50 60 0,0
31.05.2020 19:00:00 18,0 6,3 - - 24 13 - - E 1023,5 35 60 0,0
31.05.2020 18:00:00 18,7 5,3 - - 24 13 - - ENE 1023,4 10 60 0,0
31.05.2020 17:00:00 19,5 5,4 - - 29 16 - - E 1023,6 30 60 0,0
31.05.2020 16:00:00 20,4 5,5 - - 24 13 - - E 1023,6 30 60 0,0
31.05.2020 15:00:00 20,5 4,4 - - 22 12 - - E 1023,7 45 60 0,0
31.05.2020 14:00:00 20,8 4,6 - - 26 14 - - E 1023,8 35 60 0,0
31.05.2020 13:00:00 20,8 5,2 - - 26 14 - - E 1023,8 28 60 0,0
31.05.2020 12:00:00 21,1 5,6 - - 22 12 - - E 1023,9 27 60 0,0
31.05.2020 11:00:00 20,6 7,0 - - 21 11 - - E 1023,8 10 60 0,0

tt = temperature
td = dewpoint
tt -20cm = temperature -20cm
tt -100cm = temperature -100cm
ff = wind speed
fx = gusts
dd = wind direction
ppp = reduced air pressure
vv = visibility
sd = sunshine duration
rr = precipitation

Next stations